CAPE
891 702 480 428 443 563 566 636 699 792 871 1046 1078 1111 1016 851 602 704 765 963 826 1081 1106 962 911 818 662 619 679 597 435 666 738 665 640 627 458 341 489 566 472 559
871 674 492 520 628 732 768 706 762 806 924 971 967 849 934 815 741 862 965 917 960 1092 1203 1113 914 721 675 730 677 623 537 571 572 518 495 478 493 492 499 598 488 453
780 624 490 484 612 589 742 756 840 878 880 865 716 652 820 756 965 996 1034 1102 1048 1141 1179 1093 892 746 718 678 621 613 635 639 617 677 583 566 462 454 604 541 441 369
855 711 565 456 434 504 650 752 798 772 723 622 489 476 635 898 970 1095 1071 1102 858 910 814 840 745 667 810 863 714 652 739 594 872 879 853 849 778 653 732 646 561 438
813 747 602 536 549 526 519 480 641 509 340 381 678 616 646 889 842 1000 1024 943 880 740 665 629 648 580 748 844 721 607 683 667 811 1055 1066 992 1046 932 863 873 771 569
803 779 705 665 614 646 680 512 479 188 394 715 788 740 986 1005 873 828 790 768 769 784 644 710 753 718 749 707 662 715 717 711 855 1092 1157 1123 1192 1131 915 749 726 710
806 773 690 680 676 806 747 356 250 301 555 684 700 968 1105 1115 974 896 847 817 791 744 688 821 827 840 813 769 732 799 800 786 812 901 910 928 1068 1272 1228 1141 1046 962
900 823 749 669 677 626 494 346 193 331 447 782 1067 1134 1018 1131 1062 996 927 842 778 744 702 801 856 836 772 745 784 755 822 870 845 760 757 677 643 939 1040 1120 1114 957
922 862 762 724 713 576 458 99 96 254 447 818 1066 1129 1137 1088 1060 956 899 864 832 794 753 706 731 721 761 794 781 743 752 796 801 789 741 682 702 848 929 1019 1092 986
922 844 769 704 740 712 410 218 186 297 558 754 875 1104 942 982 945 894 832 860 715 661 694 710 708 634 742 810 775 773 747 740 681 658 641 547 623 782 884 891 848 765
861 696 685 723 788 699 452 92 192 329 500 625 810 1033 782 868 834 773 595 617 502 586 627 729 660 457 574 607 627 750 789 682 669 674 741 742 791 724 760 791 780 736
813 702 746 816 837 708 374 46 214 371 540 663 742 820 692 624 698 632 536 543 457 434 495 581 467 422 417 449 426 635 754 768 774 831 897 856 796 776 782 850 966 899
825 790 704 736 845 764 252 38 159 476 687 718 599 527 422 683 728 603 485 268 269 299 327 392 424 442 407 407 429 576 783 832 811 806 803 738 585 579 696 882 972 992
866 844 686 686 695 507 33 49 344 594 685 654 588 550 524 559 391 244 182 194 295 316 345 332 385 394 342 331 353 482 632 567 515 556 518 494 326 455 541 542 542 570
452 664 475 605 330 294 115 207 421 594 422 296 442 463 434 276 164 201 282 322 320 288 301 317 348 375 317 262 302 456 462 354 482 499 394 349 284 311 421 388 370 369
475 510 640 660 328 388 312 307 576 654 439 291 346 348 221 191 210 233 301 275 218 151 168 208 284 334 224 241 342 370 324 282 278 0 162 316 314 127 43 170 323 364
329 391 578 574 459 496 331 484 626 609 452 532 230 59 272 290 295 223 212 141 0 140 150 182 192 149 0 0 0 273 239 220 0 0 0 0 0 0 0 225 334 415
322 438 566 546 649 572 380 559 587 500 124 79 317 247 279 306 193 167 124 0 62 129 99 107 127 135 159 65 166 44 0 0 0 0 0 0 0 0 0 202 424 447
79 361 464 425 508 342 380 400 522 424 242 284 333 306 249 264 181 150 112 36 56 110 86 58 97 111 85 100 107 29 0 0 31 0 0 0 0 127 319 454 442 400
77 245 337 484 488 221 271 374 495 332 217 102 250 278 248 186 47 0 106 138 104 101 84 51 31 0 0 0 23 0 0 0 2 35 4 0 0 0 66 156 148 139
91 28 265 451 425 277 301 420 354 257 132 224 245 233 178 0 0 17 69 111 125 112 86 48 2 0 0 0 0 0 0 0 0 16 0 0 0 0 0 0 0 0
50 56 43 373 395 351 300 383 268 247 85 144 255 213 29 11 97 86 94 116 123 120 109 71 7 0 0 0 0 0 0 0 0 0 0 0 0 0 0 0 0 0
18 20 9 271 321 359 339 196 104 6 120 153 209 170 0 69 95 91 92 88 103 114 122 82 0 0 0 0 0 0 0 0 0 0 0 0 0 0 0 0 0 7
4 68 24 152 316 317 284 159 99 59 80 107 161 125 0 55 76 89 104 79 82 107 103 21 0 0 0 0 0 0 0 0 0 0 0 0 0 0 0 0 0 13
1 33 8 114 216 63 210 153 108 97 1 22 85 34 65 28 74 90 80 68 62 64 5 3 0 0 0 0 0 0 0 0 0 0 0 4 6 5 1 0 0 17
0 0 4 22 116 12 104 83 102 78 75 19 13 5 14 43 49 65 66 42 36 25 3 0 1 0 0 0 0 0 0 0 1 20 4 20 17 24 30 24 40 44
Wind_Speed
19 20 20 23 19 15 13 15 17 14 13 14 13 13 15 17 17 13 16 18 17 21 20 20 22 21 21 20 19 19 17 16 16 15 13 13 13 13 14 14 14 14
14 17 20 22 21 16 9 10 14 14 15 16 13 14 17 21 19 15 17 17 20 22 21 20 20 21 20 20 20 20 17 16 16 16 15 13 13 14 13 13 13 14
16 18 20 19 19 17 11 7 16 20 21 14 17 18 19 23 22 18 18 19 19 20 20 19 20 21 20 18 19 19 18 17 16 16 15 14 15 13 13 14 14 14
15 15 16 17 18 18 18 16 19 21 22 19 16 15 17 24 24 19 18 18 18 19 20 20 21 21 19 19 18 18 17 16 15 16 16 16 15 14 14 15 16 15
11 13 15 17 18 22 22 17 18 18 16 18 20 24 20 24 24 20 18 18 18 19 21 21 22 21 21 20 18 17 18 17 15 16 17 15 14 15 16 17 16 15
10 11 14 17 20 21 16 12 12 15 17 23 22 25 25 26 24 20 18 18 19 20 21 22 23 23 23 21 21 19 20 19 16 17 17 15 15 15 17 16 17 15
10 11 13 18 21 18 14 10 12 14 17 22 25 22 25 25 23 19 17 18 19 20 21 23 24 24 24 23 22 22 21 20 20 19 18 17 17 16 16 17 16 15
13 12 16 18 20 20 14 9 9 13 18 23 21 24 21 20 19 17 17 17 19 20 22 24 25 25 26 26 25 24 23 23 21 20 19 20 19 18 17 16 16 15
15 14 17 21 23 18 13 nan nan 13 15 15 16 17 16 15 16 17 15 16 18 20 22 23 25 26 27 27 26 25 24 23 23 22 21 21 19 17 16 16 16 15
15 17 18 22 23 18 12 9 10 12 15 14 13 13 12 12 15 16 16 16 17 19 20 21 23 25 26 27 27 26 26 25 25 24 22 21 19 17 17 17 16 16
10 12 15 20 22 19 13 nan 13 14 17 19 19 17 16 16 15 16 15 15 16 17 18 20 21 24 25 26 26 26 26 26 26 24 22 21 20 19 18 16 16 15
11 10 10 14 17 18 15 nan 15 15 18 23 21 18 20 20 18 16 14 14 15 16 17 19 21 23 24 25 24 24 23 24 24 24 23 22 22 20 19 18 17 16
11 10 9 10 13 15 17 nan 17 17 19 22 18 18 19 23 20 17 14 15 16 17 18 19 22 23 23 23 23 22 22 23 24 24 25 24 22 20 20 19 18 17
13 15 13 12 11 14 nan nan 20 19 18 18 19 21 23 25 22 19 20 21 22 23 24 26 28 29 27 24 23 23 24 24 25 26 26 24 22 21 21 19 18 18
18 16 17 14 11 13 15 18 20 21 20 21 20 23 27 28 27 24 22 23 25 26 28 30 31 30 28 26 25 24 25 25 25 26 26 25 23 22 21 21 20 20
20 19 18 18 15 16 16 20 22 23 22 24 20 27 32 33 30 26 24 24 27 29 32 33 32 29 29 29 25 24 24 26 26 nan 25 24 25 25 nan 23 22 23
24 22 22 20 20 20 19 20 22 25 27 24 29 nan 37 35 32 29 27 27 nan 32 35 34 31 29 nan nan nan 31 26 27 nan nan nan nan nan nan nan 25 25 26
26 24 23 20 20 22 20 21 23 24 22 nan 34 37 38 36 34 31 29 nan nan 34 nan 34 32 31 30 nan 31 nan nan nan nan nan nan nan nan nan nan 26 29 30
nan 25 24 23 19 20 23 20 26 26 27 31 35 36 37 37 33 31 30 nan nan 36 nan nan nan 33 nan 31 32 nan nan nan nan nan nan nan nan 24 26 28 30 30
nan 26 26 26 25 23 23 22 30 31 32 33 37 37 38 36 nan nan 30 31 32 35 nan nan nan nan nan nan nan nan nan nan nan nan nan nan nan nan nan 30 30 30
nan nan 32 32 34 34 33 32 34 34 35 35 36 38 37 nan nan nan nan 32 34 35 nan nan nan nan nan nan nan nan nan nan nan nan nan nan nan nan nan nan nan nan
nan nan nan 34 36 35 35 33 35 37 nan 35 36 39 nan nan nan nan nan 33 34 36 39 nan nan nan nan nan nan nan nan nan nan nan nan nan nan nan nan nan nan nan
nan nan nan 39 36 38 37 35 37 nan 40 35 37 38 nan nan nan nan nan nan 36 37 39 nan nan nan nan nan nan nan nan nan nan nan nan nan nan nan nan nan nan nan
nan nan nan 43 40 39 39 38 nan nan nan 39 39 39 nan nan nan nan 35 nan nan 39 38 nan nan nan nan nan nan nan nan nan nan nan nan nan nan nan nan nan nan nan
nan nan nan 42 46 nan 39 40 40 nan nan nan nan nan nan nan nan nan nan nan nan nan nan nan nan nan nan nan nan nan nan nan nan nan nan nan nan nan nan nan nan nan
nan nan nan nan 48 nan 43 nan 41 nan nan nan nan nan nan nan nan nan nan nan nan nan nan nan nan nan nan nan nan nan nan nan nan nan nan nan nan nan nan nan nan nan
Wind_Direction
256 256 265 267 267 261 268 252 247 235 221 226 222 226 225 208 221 219 227 228 226 230 226 225 225 230 229 229 229 230 231 235 234 233 236 240 241 247 256 258 256 260
248 248 246 252 255 252 254 240 242 234 227 219 223 235 226 210 210 222 230 231 231 226 227 227 228 231 231 232 234 236 232 233 239 234 242 244 245 251 257 263 263 258
235 239 243 254 261 264 276 231 228 226 241 228 211 219 224 220 214 214 225 230 234 230 232 231 231 232 233 235 238 237 234 235 235 239 245 249 250 256 257 262 264 268
233 238 245 253 256 264 258 249 244 237 223 211 241 245 220 226 221 217 223 229 231 235 236 236 237 237 237 240 241 239 239 238 229 242 248 246 253 260 263 263 264 265
253 247 252 262 260 257 256 248 242 235 226 219 219 242 235 235 223 216 220 225 231 236 238 242 242 243 241 243 244 242 245 247 231 242 249 254 255 263 265 267 265 265
261 259 261 267 263 266 270 271 258 247 242 240 221 223 238 232 222 214 215 220 227 236 238 241 243 243 245 246 244 242 245 249 248 247 249 256 258 258 264 266 265 261
280 278 272 269 266 257 259 264 268 261 257 244 237 236 236 229 218 217 214 216 224 231 237 240 243 245 243 245 244 244 243 247 247 251 255 254 259 260 257 260 262 259
279 270 263 263 270 257 245 228 252 263 258 248 245 247 246 232 222 220 217 218 223 227 230 236 240 244 244 246 247 245 245 243 250 253 255 259 260 262 260 259 255 254
278 276 277 275 274 272 266 nan nan 261 259 246 234 240 239 232 224 223 223 225 227 229 231 233 238 243 246 248 249 250 250 248 251 256 259 261 262 261 261 255 250 247
292 277 280 280 275 262 268 254 239 244 250 234 221 231 241 229 226 224 224 230 234 235 238 240 240 243 246 248 250 251 251 254 255 257 260 260 262 262 259 255 251 246
249 249 264 275 273 259 255 nan 241 237 242 242 238 244 251 243 230 223 225 231 239 243 245 247 247 247 248 246 247 249 253 255 258 259 258 258 261 264 261 254 247 246
278 273 264 266 268 260 256 nan 248 243 245 245 242 240 246 247 237 223 224 229 235 244 248 251 249 247 248 249 249 250 251 254 256 258 259 261 264 263 258 247 241 239
280 279 269 261 259 254 251 nan 249 250 256 260 250 244 246 247 235 226 216 224 229 235 241 247 246 244 245 246 247 250 252 255 258 260 262 264 266 264 257 249 242 239
264 250 235 231 242 259 nan nan 250 259 245 253 261 260 249 245 238 229 218 222 229 233 232 236 239 237 236 240 248 254 257 260 262 263 265 265 263 261 256 251 246 243
294 268 239 240 250 261 265 255 259 262 251 227 238 251 245 242 237 236 234 230 228 232 235 236 239 236 235 236 242 255 260 264 264 263 263 262 257 257 253 248 244 245
287 280 257 252 268 274 272 262 260 267 262 248 236 248 245 244 240 234 236 236 236 233 235 237 238 238 236 236 239 251 257 259 259 nan 261 260 258 253 nan 248 248 247
272 271 264 262 271 274 270 263 253 250 243 234 240 nan 247 247 243 239 234 232 nan 237 238 237 237 237 nan nan nan 249 253 256 nan nan nan nan nan nan nan 251 247 246
265 265 261 254 266 281 280 268 252 255 244 nan 243 247 244 243 243 239 236 nan nan 236 nan 239 238 234 241 nan 248 nan nan nan nan nan nan nan nan nan nan 251 250 247
nan 273 274 268 263 276 270 240 242 249 240 239 249 247 241 243 243 240 237 nan nan 238 nan nan nan 234 nan 245 247 nan nan nan nan nan nan nan nan 245 246 246 249 251
nan 270 272 268 263 257 260 245 241 245 244 243 244 241 241 241 nan nan 238 239 239 241 nan nan nan nan nan nan nan nan nan nan nan nan nan nan nan nan nan 238 243 249
nan nan 260 259 257 256 248 238 237 235 240 243 243 240 240 nan nan nan nan 242 241 241 nan nan nan nan nan nan nan nan nan nan nan nan nan nan nan nan nan nan nan nan
nan nan nan 252 257 255 253 247 241 234 nan 237 243 238 nan nan nan nan nan 243 244 244 244 nan nan nan nan nan nan nan nan nan nan nan nan nan nan nan nan nan nan nan
nan nan nan 240 245 251 251 247 241 nan 227 221 242 241 nan nan nan nan nan nan 246 245 246 nan nan nan nan nan nan nan nan nan nan nan nan nan nan nan nan nan nan nan
nan nan nan 231 234 241 248 248 nan nan nan 223 231 242 nan nan nan nan 237 nan nan 241 242 nan nan nan nan nan nan nan nan nan nan nan nan nan nan nan nan nan nan nan
nan nan nan 221 230 nan 237 245 243 nan nan nan nan nan nan nan nan nan nan nan nan nan nan nan nan nan nan nan nan nan nan nan nan nan nan nan nan nan nan nan nan nan
nan nan nan nan 221 nan 231 nan 238 nan nan nan nan nan nan nan nan nan nan nan nan nan nan nan nan nan nan nan nan nan nan nan nan nan nan nan nan nan nan nan nan nan